sat.trackr.live / text

‹ back to catalog

IRIDIUM 160

NORAD 43569 · 2018-061A

PAYLOAD ACTIVE UNKNOWN

§ Identity

Operator
Country
US
Launch date
2018-07-25
Launch site
AFWTR
Launch vehicle
Mass (kg)
RCS (m²)

Purposes: comms

External: N2YO · Heavens-Above · Gunter

§ Orbital elements

Epoch: 2026-05-25T04:13:50.510784Z

Period
100.40 min
Inclination
86.3970°
Eccentricity
0.0002250
Mean motion
14.34217390 rev/d
Perigee alt
776.1 km
Apogee alt
779.3 km
Semi-major
7,155.8 km
B*
2.6860e-6
RAAN
66.4165°
Arg perigee
87.2278°
Mean anomaly
272.9175°
Rev number
41,007

§ Raw data

IRIDIUM 1601 43569U 18061A   26145.17627906  .00000027  00000+0  26860-5 0  99942 43569  86.3970  66.4165 0002250  87.2278 272.9175 14.34217390410072

JSON: /api/v1/satellites/43569 · /tle

For live sub-satellite position, see the globe view (requires WebGL).

§ Visibility from observer

Set your observer location to see the next 7 days of passes ≥ 10°. The values pass through the URL so the page stays shareable.

No JS? Fill the form by hand. The geolocation button needs JavaScript.